Regional Weather Roundup
Issued by NWS

Home | Current Version | Previous Version | Text Only | Print | Product List | Glossary Off
Versions: 1 2 3 4 5 6 7 8 9 10 11 12 13 14 15 16 17 18 19 20 21 22 23 24 25 26 27 28 29 30 31 32 33 34 35 36 37 38 39 40 41 42 43 44 45 46 47 48 49 50

000
ASUS43 KFSD 290810
RWRSD

WEATHER ROUNDUP FOR SOUTH DAKOTA
NATIONAL WEATHER SERVICE SIOUX FALLS SD
300 AM CDT THU SEP 29 2016

NOTE: "FAIR" INDICATES FEW OR NO CLOUDS BELOW 12,000 FEET WITH NO
SIGNIFICANT WEATHER AND/OR OBSTRUCTIONS TO VISIBILITY.


SDZ001>005-009-010-012>017-290900-
NORTHWEST AND NORTH CENTRAL SOUTH DAKOTA

CITY           SKY/WX    TMP DP  RH WIND       PRES   REMARKS
BUFFALO          N/A     50  35  56 SE13      30.25F
FAITH            N/A     46  42  86 SE12      30.34F
MOBRIDGE       CLEAR     48  42  80 SE7       30.36S
$$

SDZ012>016-024>037-041>051-057-063-072>074-290900-
SOUTHWEST AND SOUTH CENTRAL SOUTH DAKOTA

CITY           SKY/WX    TMP DP  RH WIND       PRES   REMARKS
RAPID CTY ARPT CLEAR     44  35  70 SE6       30.33F
PIERRE         CLEAR     41  38  89 CALM      30.36S
CUSTER         CLEAR     42  35  76 NW3       30.41F
PHILIP         CLEAR     44  42  93 E5        30.36R
PINE RIDGE     CLEAR     58  31  35 VRB5      30.35S
WINNER         FAIR      46  42  86 S6        30.38S
$$

SDZ004>011-016>023-039-040-290900-
NORTHEAST SOUTH DAKOTA

CITY           SKY/WX    TMP DP  RH WIND       PRES   REMARKS
ABERDEEN       PTCLDY    39  37  92 CALM      30.41S
WATERTOWN      CLOUDY    41  38  89 CALM      30.41R
SISSETON         N/A     37  35  92 CALM      30.42R
$$

SDZ017-020-022-023-036>040-048>070-290900-
SOUTHEAST SOUTH DAKOTA

CITY           SKY/WX    TMP DP  RH WIND       PRES   REMARKS
SIOUX FALLS    CLOUDY    43  41  93 NE3       30.41R
HURON          CLOUDY    39  38  96 CALM      30.40S
CHAMBERLAIN    CLOUDY    46  44  93 E6        30.38F
MITCHELL       CLOUDY    43  41  93 CALM      30.41R
YANKTON        CLOUDY    45  43  93 CALM      30.39R
$$

ABBREVIATIONS USED IN REMARKS
   TC - TEMPERATURE IN CELSIUS
  WCI - WIND CHILL INDEX
   HX - HEAT INDEX
  VSB - VISIBILITY





USA.gov is the U.S. government's official web portal to all federal, state and local government web resources and services.